User: anonymous   Login
Location: Caltech
(34.1382°N, 118.1253°W)
Time: 14:32:19
(UTC-07:00)
Language:

AO-Echo - Orbit

View from above orbital plane
View from above orbital plane
View from above satellite
View from above satellite

Ground track
Ground track

The orbit data is extracted from the following two-line orbital elements,

1 28375U 04025K   16145.04450938  .00000062  00000-0  31293-4 0  9996
2 28375  98.3273  81.3511 0083109  18.3242 342.0911 14.41779089625743
Epoch (UTC): 24 May 2016 01:04:05
Eccentricity: 0.0083109
inclination: 98.3273°
perigee height: 693 km
apogee height: 812 km
right ascension of ascending node: 81.3511°
argument of perigee: 18.3242°
revolutions per day: 14.41779089
mean anomaly at epoch: 342.0911°
orbit number at epoch: 62574

The dashed part of the orbit path shows where the satellite is in the earth's shadow,  

DLR